Regional Weather Roundup
Issued by NWS

Home | Current Version | Previous Version | Graphics & Text | Print | Product List | Glossary On
Versions: 1 2 3 4 5 6 7 8 9 10 11 12 13 14 15 16 17 18 19 20 21 22 23 24 25 26 27 28 29 30 31 32 33 34 35 36 37 38 39 40 41 42 43 44 45 46 47 48 49
000
ASUS45 KBOU 240607
RWRCO

WEATHER ROUNDUP FOR COLORADO
NATIONAL WEATHER SERVICE DENVER/BOULDER CO
1200 AM MDT THU JUL 24 2014

NOTE: "FAIR" INDICATES FEW OR NO CLOUDS BELOW 12000 FEET WITH NO
SIGNIFICANT WEATHER AND/OR OBSTRUCTIONS TO VISIBILITY.

COZ001>005-013-030-031-240700-
...NORTHWEST COLORADO...

CITY           SKY/WX    TMP DP  RH WIND       PRES   REMARKS
CRAIG          CLOUDY    74  45  35 E9        30.27F
HAYDEN         MOCLDY    73  41  31 NE7       30.33R
MEEKER         PTCLDY    68  42  38 E6        30.28S
MOUNT WERNER   NOT AVBL
STEAMBOAT SPGS MOCLDY    71  42  34 W8        30.34R
WALDEN         MOCLDY    57  37  47 N5        30.46R
$$

COZ006>008-011-240700-
...WEST CENTRAL VALLEYS...

CITY           SKY/WX    TMP DP  RH WIND       PRES   REMARKS
GRAND JUNCTION PTCLDY    82  38  20 SE9       30.10F
MONTROSE       CLOUDY    76  46  34 S5        30.24S
EAGLE          PTCLDY    70  45  40 CALM      30.36S
RIFLE          PTCLDY    74  42  31 CALM      30.22R
DELTA          CLOUDY    86  40  19 NE7       30.18R
NUCLA          CLOUDY    79  39  24 E7        30.30R
$$

COZ017>023-064>068-240700-
...SOUTHWEST COLORADO...

CITY           SKY/WX    TMP DP  RH WIND       PRES   REMARKS
DURANGO        CLOUDY    69  51  52 NE12      30.43R
CORTEZ         MOCLDY    78  50  37 SE10      30.32R
PAGOSA SPRINGS CLOUDY    60  54  80 N6        30.53F
TELLURIDE      MOCLDY    68  46  45 SE16      30.56R
WOLF CREEK PAS NOT AVBL
$$

COZ009-010-012-014-032>034-037-058>063-240700-
...CENTRAL COLORADO...

CITY           SKY/WX    TMP DP  RH WIND       PRES   REMARKS
ASPEN          PTCLDY    63  46  54 S3        30.42F
BUENA VISTA    MOCLDY    59  44  57 W9        30.53S
COPPER MTN     MOCLDY    59  36  41 S22       30.80F
BERTHOUD PASS  MOCLDY    50  36  57 MISG      30.85F
COTTONWOOD PAS MOCLDY    63  37  39 S3        30.66S
GUNNISON       CLOUDY    66  45  45 NE5       30.49R
KREMMLING      PTCLDY    63  41  45 CALM      30.42S
LEADVILLE      PTCLDY    49  43  80 SE6       30.65F
MONARCH PASS   MOCLDY    52  37  58 SE8       30.93R
SALIDA         MOCLDY   N/A N/A N/A W13       30.57S
SUNLIGHT       MOCLDY    55  41  58 CALM      30.69S
WILKERSON PASS PTCLDY    54  36  50 CALM      30.78F
$$

COZ069>075-240700-
...SAN LUIS VALLEY/SANGRE DE CRISTO MOUNTAINS...

CITY           SKY/WX    TMP DP  RH WIND       PRES   REMARKS
ALAMOSA        PTCLDY    63  46  54 SW10      30.47F
LA VETA PASS   MOCLDY    55  37  50 NW8       30.67S
SAGUACHE       MOCLDY    63  46  55 SE5       30.54S
$$

COZ035-036-038>040-240700-
...NORTHERN COLORADO FRONT RANGE...

CITY           SKY/WX    TMP DP  RH WIND       PRES   REMARKS
DENVER INTL AP MOCLDY    68  48  48 S13       30.21F
DMNS CITY PARK   N/A     74  47  37 S9        30.18F
AURORA         MOCLDY    71  48  43 S14       30.23F
FRONT RANGE AP NOT AVBL
ERIE MUNI ARPT PTCLDY    72  47  41 CALM      30.16F
BOULDER MUN AP PTCLDY    72  46  40 N5        30.18S
CENTENNIAL     MOCLDY    75  46  35 SW13      30.25S
BROOMFIELD     PTCLDY    77  43  29 S5        30.21F
FORT COLLINS   CLEAR     68  54  60 N5        30.17F
LONGMONT       CLEAR     66  53  63 NW7       30.17F
$$

COZ041-046-047-076>085-087-088-240700-
...PIKES PEAK/PALMER DIVIDE AND SOUTHERN FOOTHILLS...

CITY           SKY/WX    TMP DP  RH WIND       PRES   REMARKS
COLO. SPRINGS  MOCLDY    70  51  51 NE8       30.34F
A. F. ACADEMY  MOCLDY    65  49  55 NE2       30.36F
ELLICOTT       MOCLDY    71  61  70 CALM      30.32S
FALCON         MOCLDY    68  49  50 SW3       30.40F
FORT CARSON    CLOUDY    71  50  47 NW9       30.30F
LIMON          PTCLDY    69  63  81 SE9       30.26F
MONUMENT HILL  CLOUDY    68  43  40 S13       30.37F
TRINIDAD       PTCLDY    69  48  47 SW12      30.31F
$$

COZ042>045-048>051-090-091-240700-
...NORTHEAST COLORADO...

CITY           SKY/WX    TMP DP  RH WIND       PRES   REMARKS
GREELEY ARPT   PTCLDY    64  52  63 NE6       30.16F
AKRON          CLEAR     74  61  63 S17G25    30.20S
BURLINGTON     PTCLDY    74  65  73 SE14      30.21S
WRAY             N/A     73  60  63 NE6       30.17S
STERLING       CLEAR     75  66  73 S8        30.13F
HOLYOKE        CLEAR     72  64  78 SE10      30.17S
FORT MORGAN    CLEAR     71  60  67 S7        30.18S
$$

COZ086-089-092>099-240700-
...SOUTHEAST COLORADO...

CITY           SKY/WX    TMP DP  RH WIND       PRES   REMARKS
PUEBLO         PTCLDY    75  60  59 N10       30.19S
LA JUNTA       PTCLDY    77  53  43 S6        30.19R
LAMAR          CLEAR     77  62  59 S16       30.14S
SPRINGFIELD      N/A     70  55  59 S8        30.24S
$$



USA.gov is the U.S. government's official web portal to all federal, state and local government web resources and services.